TSC640 CYUL-TJSJ

Flight info

Callsign TSC640
Flight time 3h 46m
Altitude 40000
Route FAWNS DCT BUGSY DCT PONCT DCT JFK/N0468F390 Y484 OWENZ Y481 OHRYN/N0471F400 DCT BEHHR/M082F400 Y489 RESQU/M082F390 DCT SKPPR L455 KINCH/N0474F390 L455 LENNT M423 PLING RTE7 SAALR
Aircraft A332/H-SDE3GHIJ2J3J5M1RVWXY/LB2D1

Departure

Time 2026-05-04 19:46
Airport Montreal / Pierre Elliott Trudeau International Airport (CYUL)

Arrival

Time 2026-05-04 23:32
Airport Luis Munoz Marin International Airport (TJSJ)
Time Latitude Longitude Altitude Speed Heading
2026-05-04 18:48 45.45984 -73.75458 108 ft 0 kts 194°
2026-05-04 19:32 45.45993 -73.75455 109 ft 4 kts 192°
2026-05-04 19:32 45.46019 -73.75448 106 ft 4 kts 183°
2026-05-04 19:32 45.46046 -73.75450 106 ft 4 kts 163°
2026-05-04 19:32 45.46065 -73.75466 106 ft 4 kts 100°
2026-05-04 19:33 45.46066 -73.75472 106 ft 0 kts 88°
2026-05-04 19:37 45.46067 -73.75428 108 ft 11 kts 86°
2026-05-04 19:37 45.46120 -73.75347 104 ft 13 kts 30°
2026-05-04 19:38 45.46146 -73.75222 105 ft 15 kts 88°
2026-05-04 19:38 45.46149 -73.75072 107 ft 15 kts 88°
2026-05-04 19:38 45.46153 -73.74922 108 ft 16 kts 87°
2026-05-04 19:38 45.46159 -73.74750 108 ft 18 kts 88°
2026-05-04 19:39 45.46145 -73.74568 107 ft 18 kts 123°
2026-05-04 19:39 45.46053 -73.74456 107 ft 17 kts 137°
2026-05-04 19:39 45.45976 -73.74341 105 ft 14 kts 126°
2026-05-04 19:39 45.46008 -73.74230 106 ft 15 kts 42°
2026-05-04 19:40 45.46090 -73.74120 106 ft 20 kts 43°
2026-05-04 19:40 45.46198 -73.73981 108 ft 22 kts 42°
2026-05-04 19:40 45.46312 -73.73831 110 ft 23 kts 43°
2026-05-04 19:40 45.46429 -73.73677 108 ft 21 kts 42°
2026-05-04 19:41 45.46538 -73.73536 110 ft 22 kts 43°
2026-05-04 19:41 45.46652 -73.73384 115 ft 23 kts 43°
2026-05-04 19:41 45.46772 -73.73227 114 ft 24 kts 42°
2026-05-04 19:41 45.46896 -73.73065 118 ft 24 kts 42°
2026-05-04 19:42 45.47023 -73.72900 117 ft 25 kts 42°
2026-05-04 19:42 45.47154 -73.72728 119 ft 26 kts 43°
2026-05-04 19:42 45.47289 -73.72549 118 ft 27 kts 42°
2026-05-04 19:42 45.47430 -73.72365 118 ft 28 kts 43°
2026-05-04 19:43 45.47573 -73.72178 121 ft 29 kts 43°
2026-05-04 19:43 45.47705 -73.72004 120 ft 21 kts 43°
2026-05-04 19:43 45.47792 -73.71891 122 ft 17 kts 43°
2026-05-04 19:43 45.47869 -73.71768 121 ft 15 kts 82°
2026-05-04 19:44 45.47816 -73.71635 123 ft 16 kts 130°
2026-05-04 19:44 45.47757 -73.71550 123 ft 8 kts 147°
2026-05-04 19:44 45.47728 -73.71568 123 ft 2 kts 223°
2026-05-04 19:45 45.47727 -73.71569 123 ft 1 kts 223°
2026-05-04 19:45 45.47635 -73.71691 126 ft 47 kts 223°
2026-05-04 19:45 45.47219 -73.72237 118 ft 114 kts 223°
2026-05-04 19:45 45.46494 -73.73186 216 ft 163 kts 221°
2026-05-04 19:46 45.45664 -73.74277 1055 ft 159 kts 223°
2026-05-04 19:46 45.44862 -73.75341 2031 ft 159 kts 226°
2026-05-04 19:46 45.44003 -73.76537 2560 ft 184 kts 227°
2026-05-04 19:46 45.42989 -73.77782 3097 ft 204 kts 213°
2026-05-04 19:47 45.41598 -73.78594 3609 ft 228 kts 205°
2026-05-04 19:47 45.40069 -73.79547 4181 ft 251 kts 209°
2026-05-04 19:47 45.38500 -73.80680 5053 ft 258 kts 212°
2026-05-04 19:47 45.36928 -73.81897 6174 ft 257 kts 213°
2026-05-04 19:48 45.35367 -73.83138 7151 ft 259 kts 215°
2026-05-04 19:48 45.33791 -73.84417 8080 ft 263 kts 216°
2026-05-04 19:48 45.32183 -73.85681 9033 ft 267 kts 216°
2026-05-04 19:48 45.30530 -73.86931 9944 ft 271 kts 216°
2026-05-04 19:49 45.28816 -73.88192 10551 ft 286 kts 214°
2026-05-04 19:49 45.26974 -73.89529 10897 ft 309 kts 214°
2026-05-04 19:49 45.24991 -73.90954 11231 ft 330 kts 213°
2026-05-04 19:49 45.22896 -73.92443 11757 ft 343 kts 212°
2026-05-04 19:50 45.20769 -73.93939 12505 ft 348 kts 212°
2026-05-04 19:50 45.18588 -73.95466 13327 ft 352 kts 212°
2026-05-04 19:50 45.16380 -73.97016 14057 ft 356 kts 212°
2026-05-04 19:50 45.14141 -73.98591 14759 ft 361 kts 212°
2026-05-04 19:51 45.11880 -74.00187 15454 ft 366 kts 212°
2026-05-04 19:51 45.09589 -74.01806 16136 ft 370 kts 212°
2026-05-04 19:51 45.07274 -74.03444 16843 ft 375 kts 212°
2026-05-04 19:51 45.04921 -74.05107 17517 ft 380 kts 212°
2026-05-04 19:52 45.02580 -74.06760 18161 ft 384 kts 212°
2026-05-04 19:52 45.00105 -74.08290 18719 ft 393 kts 204°
2026-05-04 19:52 44.97425 -74.09296 19266 ft 403 kts 198°
2026-05-04 19:52 44.94646 -74.10038 19818 ft 410 kts 195°
2026-05-04 19:53 44.91811 -74.10635 20353 ft 415 kts 193°
2026-05-04 19:53 44.88929 -74.11161 20911 ft 420 kts 192°
2026-05-04 19:53 44.86010 -74.11665 21436 ft 425 kts 192°
2026-05-04 19:53 44.83070 -74.12174 21975 ft 428 kts 192°
2026-05-04 19:54 44.80101 -74.12700 22492 ft 432 kts 192°
2026-05-04 19:54 44.77107 -74.13243 22998 ft 436 kts 192°
2026-05-04 19:54 44.74114 -74.13728 23456 ft 442 kts 189°
2026-05-04 19:54 44.71008 -74.13746 23891 ft 450 kts 181°
2026-05-04 19:55 44.67871 -74.13426 24321 ft 455 kts 179°
2026-05-04 19:55 44.64705 -74.12963 24745 ft 459 kts 178°
2026-05-04 19:55 44.61529 -74.12423 25209 ft 462 kts 178°
2026-05-04 19:55 44.58324 -74.11846 25637 ft 466 kts 177°
2026-05-04 19:56 44.55099 -74.11262 26066 ft 469 kts 178°
2026-05-04 19:56 44.51850 -74.10680 26498 ft 472 kts 178°
2026-05-04 19:56 44.48622 -74.10114 26887 ft 476 kts 178°
2026-05-04 19:56 44.45330 -74.09545 27274 ft 479 kts 178°
2026-05-04 19:57 44.42014 -74.08978 27706 ft 481 kts 178°
2026-05-04 19:57 44.38677 -74.08412 28111 ft 485 kts 178°
2026-05-04 19:57 44.35312 -74.07843 28451 ft 489 kts 178°
2026-05-04 19:57 44.31921 -74.07270 28862 ft 492 kts 178°
2026-05-04 19:58 44.28513 -74.06695 29254 ft 495 kts 178°
2026-05-04 19:58 44.25080 -74.06116 29652 ft 499 kts 178°
2026-05-04 19:58 44.21627 -74.05532 30003 ft 501 kts 178°
2026-05-04 19:58 44.18199 -74.04954 30307 ft 505 kts 178°
2026-05-04 19:59 44.14704 -74.04366 30613 ft 508 kts 179°
2026-05-04 19:59 44.11185 -74.03774 31002 ft 509 kts 179°
2026-05-04 19:59 44.07665 -74.03181 31428 ft 510 kts 179°
2026-05-04 19:59 44.04140 -74.02588 31808 ft 511 kts 179°
2026-05-04 20:00 44.00613 -74.01995 32198 ft 511 kts 179°
2026-05-04 20:00 43.97069 -74.01401 32562 ft 513 kts 179°
2026-05-04 20:00 43.93575 -74.00817 32906 ft 515 kts 179°
2026-05-04 20:00 43.90017 -74.00222 33274 ft 515 kts 179°
2026-05-04 20:01 43.86458 -73.99627 33690 ft 515 kts 179°
2026-05-04 20:01 43.82893 -73.99032 33993 ft 516 kts 179°
2026-05-04 20:01 43.79334 -73.98438 34410 ft 514 kts 178°
2026-05-04 20:01 43.75803 -73.97847 34925 ft 508 kts 178°
2026-05-04 20:02 43.72314 -73.97272 35492 ft 502 kts 178°
2026-05-04 20:02 43.68857 -73.96712 35978 ft 498 kts 178°
2026-05-04 20:02 43.65467 -73.96151 36403 ft 496 kts 178°
2026-05-04 20:02 43.62049 -73.95581 36805 ft 494 kts 178°
2026-05-04 20:03 43.58644 -73.95012 37194 ft 492 kts 178°
2026-05-04 20:03 43.55249 -73.94448 37600 ft 490 kts 178°
2026-05-04 20:03 43.51874 -73.93888 37996 ft 487 kts 178°
2026-05-04 20:03 43.48517 -73.93334 38394 ft 485 kts 178°
2026-05-04 20:04 43.45172 -73.92782 38655 ft 483 kts 178°
2026-05-04 20:04 43.41831 -73.92234 38870 ft 484 kts 178°
2026-05-04 20:04 43.38489 -73.91688 39088 ft 484 kts 178°
2026-05-04 20:04 43.35191 -73.91149 39283 ft 484 kts 178°
2026-05-04 20:05 43.31849 -73.90602 39504 ft 483 kts 178°
2026-05-04 20:05 43.28510 -73.90056 39709 ft 483 kts 178°
2026-05-04 20:05 43.25161 -73.89510 39785 ft 486 kts 178°
2026-05-04 20:06 43.18442 -73.88415 39790 ft 486 kts 178°
2026-05-04 20:06 43.11716 -73.87320 39796 ft 490 kts 178°
2026-05-04 20:07 43.04917 -73.86221 39797 ft 499 kts 178°
2026-05-04 20:07 42.98010 -73.85101 39798 ft 500 kts 178°
2026-05-04 20:08 42.91107 -73.83981 39799 ft 499 kts 178°
2026-05-04 20:08 42.84209 -73.82866 39795 ft 499 kts 178°
2026-05-04 20:09 42.77357 -73.81763 39804 ft 499 kts 178°
2026-05-04 20:09 42.70463 -73.81246 39804 ft 495 kts 183°
2026-05-04 20:10 42.63578 -73.81065 39799 ft 495 kts 184°
2026-05-04 20:10 42.56690 -73.80945 39807 ft 495 kts 184°
2026-05-04 20:11 42.49846 -73.80823 39813 ft 495 kts 184°
2026-05-04 20:11 42.42956 -73.80688 39814 ft 495 kts 184°
2026-05-04 20:12 42.36069 -73.80548 39829 ft 495 kts 184°
2026-05-04 20:12 42.29179 -73.80407 39829 ft 495 kts 184°
2026-05-04 20:13 42.22286 -73.80268 39828 ft 495 kts 184°
2026-05-04 20:13 42.15439 -73.80130 39833 ft 496 kts 184°
2026-05-04 20:14 42.08544 -73.79992 39834 ft 496 kts 184°
2026-05-04 20:14 42.01649 -73.79853 39837 ft 496 kts 184°
2026-05-04 20:15 41.94753 -73.79715 39839 ft 496 kts 184°
2026-05-04 20:15 41.87897 -73.79578 39844 ft 496 kts 184°
2026-05-04 20:16 41.81004 -73.79440 39846 ft 496 kts 184°
2026-05-04 20:16 41.74108 -73.79304 39847 ft 495 kts 184°
2026-05-04 20:17 41.67218 -73.79168 39850 ft 495 kts 184°
2026-05-04 20:17 41.60321 -73.79032 39849 ft 495 kts 184°
2026-05-04 20:18 41.53477 -73.78896 39851 ft 495 kts 184°
2026-05-04 20:18 41.46587 -73.78760 39874 ft 495 kts 184°
2026-05-04 20:19 41.39690 -73.78625 39879 ft 495 kts 184°
2026-05-04 20:19 41.32801 -73.78489 39882 ft 495 kts 184°
2026-05-04 20:20 41.25916 -73.78354 39890 ft 495 kts 184°
2026-05-04 20:20 41.19077 -73.78220 39894 ft 494 kts 184°
2026-05-04 20:21 41.12203 -73.78085 39895 ft 494 kts 184°
2026-05-04 20:21 41.01913 -73.77884 40153 ft 490 kts 184°
2026-05-04 20:22 40.98521 -73.77815 40619 ft 484 kts 184°
2026-05-04 20:22 40.95161 -73.77747 40862 ft 482 kts 184°
2026-05-04 20:22 40.88469 -73.77619 40904 ft 483 kts 184°
2026-05-04 20:23 40.81692 -73.77496 40893 ft 490 kts 184°
2026-05-04 20:23 40.74910 -73.77365 40895 ft 490 kts 184°
2026-05-04 20:24 40.68097 -73.76940 40934 ft 494 kts 175°
2026-05-04 20:24 40.61509 -73.74114 40921 ft 506 kts 155°
2026-05-04 20:25 40.55811 -73.68567 40935 ft 513 kts 142°
2026-05-04 20:25 40.50491 -73.62294 40940 ft 515 kts 141°
2026-05-04 20:26 40.45217 -73.55942 40947 ft 514 kts 141°
2026-05-04 20:26 40.39948 -73.49694 40954 ft 514 kts 141°
2026-05-04 20:27 40.34620 -73.43451 40961 ft 513 kts 142°
2026-05-04 20:27 40.29286 -73.37236 40963 ft 513 kts 142°
2026-05-04 20:28 40.23959 -73.31040 40959 ft 513 kts 142°
2026-05-04 20:28 40.18660 -73.24890 40963 ft 512 kts 142°
2026-05-04 20:29 40.13332 -73.18716 40970 ft 512 kts 142°
2026-05-04 20:29 40.08009 -73.12560 40965 ft 512 kts 143°
2026-05-04 20:30 40.02672 -73.06402 40975 ft 512 kts 143°
2026-05-04 20:30 39.97335 -73.00257 40982 ft 512 kts 143°
2026-05-04 20:31 39.92024 -72.94155 40986 ft 512 kts 143°
2026-05-04 20:31 39.86678 -72.88015 40989 ft 513 kts 141°
2026-05-04 20:32 39.82141 -72.80767 40993 ft 524 kts 122°
2026-05-04 20:32 39.79242 -72.72067 40999 ft 531 kts 113°
2026-05-04 20:33 39.76791 -72.63020 41010 ft 532 kts 111°
2026-05-04 20:33 39.74389 -72.53907 41006 ft 533 kts 111°
2026-05-04 20:34 39.71944 -72.44818 41011 ft 534 kts 112°
2026-05-04 20:34 39.69476 -72.35793 41014 ft 534 kts 112°
2026-05-04 20:35 39.66976 -72.26722 41017 ft 534 kts 112°
2026-05-04 20:35 39.63717 -72.18181 41018 ft 525 kts 130°
2026-05-04 20:36 39.59066 -72.10965 41033 ft 521 kts 136°
2026-05-04 20:36 39.54170 -72.04138 41028 ft 520 kts 138°
2026-05-04 20:37 39.49201 -71.97330 41037 ft 520 kts 138°
2026-05-04 20:37 39.44243 -71.90497 41030 ft 521 kts 138°
2026-05-04 20:38 39.39298 -71.83653 41043 ft 521 kts 138°
2026-05-04 20:38 39.34355 -71.76813 41042 ft 520 kts 138°
2026-05-04 20:39 39.29444 -71.70034 41042 ft 520 kts 138°
2026-05-04 20:39 39.24420 -71.63332 41051 ft 516 kts 144°
2026-05-04 20:40 39.18502 -71.58442 41049 ft 499 kts 163°
2026-05-04 20:40 39.15238 -71.57075 41051 ft 489 kts 174°
2026-05-04 20:40 39.11900 -71.56436 41054 ft 482 kts 181°
2026-05-04 20:41 39.05266 -71.55894 41059 ft 480 kts 184°
2026-05-04 20:41 38.98590 -71.55584 41041 ft 480 kts 184°
2026-05-04 20:42 38.91924 -71.55249 41064 ft 479 kts 184°
2026-05-04 20:42 38.85261 -71.54865 41067 ft 479 kts 184°
2026-05-04 20:43 38.78605 -71.54461 41066 ft 479 kts 183°
2026-05-04 20:43 38.71985 -71.54058 41069 ft 479 kts 184°
2026-05-04 20:44 38.65333 -71.53656 41069 ft 479 kts 184°
2026-05-04 20:44 38.58678 -71.53255 41072 ft 479 kts 184°
2026-05-04 20:45 38.52021 -71.52818 41071 ft 479 kts 183°
2026-05-04 20:45 38.45413 -71.52296 41081 ft 479 kts 182°
2026-05-04 20:46 38.38759 -71.51758 41077 ft 479 kts 182°
2026-05-04 20:46 38.32112 -71.51229 41079 ft 479 kts 183°
2026-05-04 20:47 38.28803 -71.50968 40897 ft 475 kts 183°
2026-05-04 20:47 38.25501 -71.50708 40656 ft 475 kts 183°
2026-05-04 20:47 38.22197 -71.50451 40280 ft 476 kts 183°
2026-05-04 20:47 38.18933 -71.50198 40109 ft 476 kts 183°
2026-05-04 20:48 38.12314 -71.49685 40089 ft 477 kts 183°
2026-05-04 20:48 38.05684 -71.49169 40088 ft 477 kts 183°
2026-05-04 20:49 37.99069 -71.48654 40090 ft 476 kts 183°
2026-05-04 20:49 37.92507 -71.48145 40090 ft 475 kts 183°
2026-05-04 20:50 37.85905 -71.47635 40063 ft 475 kts 184°
2026-05-04 20:50 37.79307 -71.47125 40094 ft 475 kts 184°
2026-05-04 20:51 37.72712 -71.46617 40099 ft 474 kts 184°
2026-05-04 20:51 37.66126 -71.46111 40099 ft 474 kts 184°
2026-05-04 20:52 37.59580 -71.45608 40100 ft 474 kts 184°
2026-05-04 20:52 37.52988 -71.45103 40103 ft 474 kts 184°
2026-05-04 20:53 37.46413 -71.43548 40103 ft 492 kts 168°
2026-05-04 20:53 37.40053 -71.40182 40108 ft 499 kts 162°
2026-05-04 20:54 37.33777 -71.36427 40110 ft 500 kts 162°
2026-05-04 20:54 37.27542 -71.32655 40115 ft 500 kts 162°
2026-05-04 20:55 37.21258 -71.28906 40119 ft 500 kts 162°
2026-05-04 20:55 37.14963 -71.25188 40119 ft 500 kts 162°
2026-05-04 20:56 37.08669 -71.21486 40121 ft 499 kts 162°
2026-05-04 20:56 37.02437 -71.17825 40125 ft 498 kts 162°
2026-05-04 20:57 36.96157 -71.14143 40124 ft 498 kts 162°
2026-05-04 20:57 36.89879 -71.10468 40132 ft 498 kts 162°
2026-05-04 20:58 36.83603 -71.06801 40135 ft 498 kts 162°
2026-05-04 20:58 36.77365 -71.03162 40133 ft 498 kts 162°
2026-05-04 20:59 36.71085 -70.99505 40144 ft 498 kts 162°
2026-05-04 20:59 36.64802 -70.95853 40144 ft 498 kts 162°
2026-05-04 21:00 36.58571 -70.92237 40158 ft 497 kts 163°
2026-05-04 21:00 36.52320 -70.88614 40148 ft 494 kts 163°
2026-05-04 21:01 36.46111 -70.85022 40150 ft 490 kts 163°
2026-05-04 21:01 36.39938 -70.81460 40150 ft 488 kts 163°
2026-05-04 21:02 36.33778 -70.77913 40149 ft 488 kts 164°
2026-05-04 21:02 36.27660 -70.74397 40156 ft 488 kts 164°
2026-05-04 21:03 36.21499 -70.70862 40160 ft 488 kts 164°
2026-05-04 21:03 36.15336 -70.67330 40160 ft 488 kts 164°
2026-05-04 21:04 36.09176 -70.63805 40158 ft 488 kts 165°
2026-05-04 21:04 36.03051 -70.60308 40162 ft 488 kts 165°
2026-05-04 21:05 35.96875 -70.56788 40165 ft 489 kts 165°
2026-05-04 21:05 35.90708 -70.53277 40158 ft 488 kts 165°
2026-05-04 21:06 35.84550 -70.49776 40141 ft 486 kts 165°
2026-05-04 21:06 35.78466 -70.46327 40169 ft 482 kts 166°
2026-05-04 21:07 35.75364 -70.44926 40170 ft 470 kts 174°
2026-05-04 21:07 35.72221 -70.43908 40170 ft 466 kts 176°
2026-05-04 21:07 35.65916 -70.42138 40170 ft 464 kts 178°
2026-05-04 21:08 35.59610 -70.40495 40136 ft 463 kts 178°
2026-05-04 21:08 35.53349 -70.38862 40178 ft 462 kts 178°
2026-05-04 21:09 35.47080 -70.37208 40182 ft 460 kts 178°
2026-05-04 21:09 35.40817 -70.35551 40181 ft 461 kts 178°
2026-05-04 21:10 35.34554 -70.33895 40145 ft 461 kts 178°
2026-05-04 21:10 35.28297 -70.32241 40178 ft 459 kts 178°
2026-05-04 21:11 35.22067 -70.30597 40179 ft 458 kts 178°
2026-05-04 21:11 35.15889 -70.28973 40181 ft 458 kts 178°
2026-05-04 21:12 35.09658 -70.27337 40144 ft 458 kts 178°
2026-05-04 21:12 35.03449 -70.25707 40181 ft 455 kts 178°
2026-05-04 21:13 34.97259 -70.24083 40181 ft 454 kts 178°
2026-05-04 21:13 34.91126 -70.22481 40181 ft 454 kts 178°
2026-05-04 21:14 34.84940 -70.20867 40181 ft 454 kts 178°
2026-05-04 21:14 34.78788 -70.19259 40188 ft 449 kts 178°
2026-05-04 21:15 34.72694 -70.17669 40183 ft 447 kts 178°
2026-05-04 21:15 34.66662 -70.16103 40179 ft 445 kts 178°
2026-05-04 21:16 34.60600 -70.14533 40173 ft 445 kts 178°
2026-05-04 21:16 34.54542 -70.12964 40183 ft 445 kts 178°
2026-05-04 21:17 34.48495 -70.11398 40186 ft 444 kts 178°
2026-05-04 21:17 34.42502 -70.09850 40186 ft 443 kts 178°
2026-05-04 21:18 34.36469 -70.08294 40187 ft 443 kts 178°
2026-05-04 21:18 34.30428 -70.06738 40187 ft 444 kts 178°
2026-05-04 21:19 34.24396 -70.05187 40186 ft 444 kts 178°
2026-05-04 21:19 34.18356 -70.03635 40184 ft 444 kts 178°
2026-05-04 21:20 34.12355 -70.02096 40184 ft 444 kts 178°
2026-05-04 21:20 34.06314 -70.00548 40158 ft 443 kts 178°
2026-05-04 21:21 34.00292 -69.99006 40185 ft 441 kts 178°
2026-05-04 21:21 33.94287 -69.97472 40190 ft 441 kts 178°
2026-05-04 21:22 33.88325 -69.95953 40187 ft 441 kts 178°
2026-05-04 21:22 33.82321 -69.94425 40148 ft 441 kts 178°
2026-05-04 21:23 33.76320 -69.92898 40184 ft 441 kts 179°
2026-05-04 21:23 33.70325 -69.91376 40184 ft 440 kts 179°
2026-05-04 21:24 33.64363 -69.89864 40184 ft 441 kts 179°
2026-05-04 21:24 33.58370 -69.88347 40184 ft 441 kts 179°
2026-05-04 21:25 33.52369 -69.86829 40179 ft 441 kts 179°
2026-05-04 21:25 33.46369 -69.85314 40180 ft 440 kts 179°
2026-05-04 21:26 33.40431 -69.83814 40181 ft 438 kts 179°
2026-05-04 21:26 33.34471 -69.82314 40178 ft 438 kts 179°
2026-05-04 21:27 33.28510 -69.80817 40162 ft 438 kts 179°
2026-05-04 21:27 33.22542 -69.79319 40176 ft 438 kts 179°
2026-05-04 21:28 33.16578 -69.77824 40176 ft 438 kts 179°
2026-05-04 21:28 33.10648 -69.76339 40176 ft 438 kts 179°
2026-05-04 21:29 33.04678 -69.74847 40175 ft 438 kts 179°
2026-05-04 21:29 32.98707 -69.73356 40171 ft 438 kts 179°
2026-05-04 21:30 32.92741 -69.71868 40176 ft 439 kts 179°
2026-05-04 21:30 32.86803 -69.70390 40177 ft 439 kts 179°
2026-05-04 21:31 32.77837 -69.68162 40127 ft 439 kts 179°
2026-05-04 21:32 32.71862 -69.66679 40171 ft 439 kts 179°
2026-05-04 21:32 32.65878 -69.65196 40171 ft 439 kts 179°
2026-05-04 21:33 32.59932 -69.63725 40171 ft 439 kts 179°
2026-05-04 21:33 32.53945 -69.62245 40168 ft 439 kts 179°
2026-05-04 21:34 32.47960 -69.60768 40163 ft 440 kts 179°
2026-05-04 21:34 32.41965 -69.59291 40165 ft 440 kts 179°
2026-05-04 21:35 32.36009 -69.57825 40165 ft 440 kts 179°
2026-05-04 21:35 32.30010 -69.56351 40166 ft 440 kts 179°
2026-05-04 21:36 32.24018 -69.54880 40118 ft 440 kts 179°
2026-05-04 21:36 32.18007 -69.53408 40162 ft 442 kts 179°
2026-05-04 21:37 32.12994 -69.52182 40152 ft 443 kts 179°
2026-05-04 21:37 32.05982 -69.50466 40159 ft 443 kts 179°
2026-05-04 21:38 31.99948 -69.48992 40160 ft 443 kts 179°
2026-05-04 21:38 31.94927 -69.47767 40142 ft 443 kts 178°
2026-05-04 21:39 31.88884 -69.46296 40154 ft 444 kts 178°
2026-05-04 21:39 31.81863 -69.44589 40154 ft 444 kts 178°
2026-05-04 21:40 31.76794 -69.43357 40155 ft 444 kts 178°
2026-05-04 21:40 31.70785 -69.41900 40154 ft 444 kts 178°
2026-05-04 21:41 31.64734 -69.40434 40151 ft 444 kts 178°
2026-05-04 21:41 31.58685 -69.38970 40151 ft 444 kts 178°
2026-05-04 21:42 31.52636 -69.37509 40152 ft 444 kts 178°
2026-05-04 21:42 31.46591 -69.36051 40151 ft 444 kts 178°
2026-05-04 21:43 31.40583 -69.34603 40147 ft 444 kts 178°
2026-05-04 21:43 31.34533 -69.33147 40151 ft 443 kts 178°
2026-05-04 21:44 31.28495 -69.31696 40149 ft 443 kts 178°
2026-05-04 21:44 31.22449 -69.30245 40137 ft 444 kts 178°
2026-05-04 21:45 31.16440 -69.28805 40093 ft 444 kts 178°
2026-05-04 21:45 31.10403 -69.27358 40136 ft 442 kts 178°
2026-05-04 21:46 31.04390 -69.25920 40141 ft 441 kts 178°
2026-05-04 21:46 30.98377 -69.24485 40138 ft 441 kts 178°
2026-05-04 21:47 30.92362 -69.23052 40138 ft 441 kts 178°
2026-05-04 21:47 30.86388 -69.21630 40138 ft 441 kts 178°
2026-05-04 21:48 30.80400 -69.20204 40139 ft 440 kts 178°
2026-05-04 21:48 30.74404 -69.18780 40117 ft 439 kts 178°
2026-05-04 21:49 30.68418 -69.17360 40130 ft 439 kts 178°
2026-05-04 21:49 30.62484 -69.15954 40125 ft 438 kts 178°
2026-05-04 21:50 30.56497 -69.14540 40128 ft 440 kts 178°
2026-05-04 21:50 30.50487 -69.13121 40125 ft 441 kts 178°
2026-05-04 21:51 30.44474 -69.11701 40121 ft 441 kts 178°
2026-05-04 21:51 30.38498 -69.10291 40121 ft 441 kts 178°
2026-05-04 21:52 30.32488 -69.08875 40102 ft 441 kts 178°
2026-05-04 21:52 30.26454 -69.07459 40113 ft 443 kts 178°
2026-05-04 21:53 30.20406 -69.06038 40109 ft 444 kts 178°
2026-05-04 21:53 30.14396 -69.04627 40109 ft 444 kts 178°
2026-05-04 21:54 30.08344 -69.03209 40109 ft 444 kts 178°
2026-05-04 21:54 30.02293 -69.01793 40107 ft 444 kts 178°
2026-05-04 21:55 29.96239 -69.00379 40107 ft 444 kts 178°
2026-05-04 21:55 29.90176 -68.98964 40102 ft 444 kts 178°
2026-05-04 21:56 29.84163 -68.97562 40097 ft 444 kts 178°
2026-05-04 21:56 29.78104 -68.96151 40042 ft 444 kts 178°
2026-05-04 21:57 29.72020 -68.94739 40093 ft 447 kts 178°
2026-05-04 21:57 29.65906 -68.93320 40084 ft 449 kts 178°
2026-05-04 21:58 29.59833 -68.91910 40087 ft 449 kts 178°
2026-05-04 21:58 29.53709 -68.90489 40083 ft 449 kts 178°
2026-05-04 21:59 29.47586 -68.89073 40079 ft 450 kts 178°
2026-05-04 21:59 29.41427 -68.87652 40078 ft 452 kts 178°
2026-05-04 22:00 29.35295 -68.86236 40078 ft 453 kts 178°
2026-05-04 22:00 29.29110 -68.84810 40075 ft 454 kts 178°
2026-05-04 22:01 29.22904 -68.83381 40074 ft 456 kts 178°
2026-05-04 22:01 29.16691 -68.81952 40069 ft 455 kts 177°
2026-05-04 22:02 29.10521 -68.80533 40069 ft 455 kts 177°
2026-05-04 22:02 29.04314 -68.79109 40070 ft 455 kts 177°
2026-05-04 22:03 28.98103 -68.77686 40070 ft 455 kts 177°
2026-05-04 22:03 28.91896 -68.76266 40069 ft 455 kts 177°
2026-05-04 22:04 28.85728 -68.74857 40069 ft 455 kts 177°
2026-05-04 22:04 28.79518 -68.73439 40069 ft 455 kts 177°
2026-05-04 22:05 28.73304 -68.72023 40075 ft 455 kts 177°
2026-05-04 22:05 28.67093 -68.70608 40075 ft 455 kts 177°
2026-05-04 22:06 28.60929 -68.69207 40076 ft 456 kts 177°
2026-05-04 22:06 28.54706 -68.67794 40079 ft 456 kts 177°
2026-05-04 22:07 28.48480 -68.66381 40074 ft 456 kts 177°
2026-05-04 22:07 28.42254 -68.64970 40071 ft 456 kts 177°
2026-05-04 22:08 28.36069 -68.63570 40055 ft 456 kts 177°
2026-05-04 22:08 28.29824 -68.62160 40070 ft 458 kts 177°
2026-05-04 22:09 28.23561 -68.60746 40072 ft 459 kts 177°
2026-05-04 22:09 28.17295 -68.59332 40069 ft 459 kts 177°
2026-05-04 22:10 28.11077 -68.57930 40071 ft 459 kts 177°
2026-05-04 22:10 28.04807 -68.56520 40062 ft 460 kts 177°
2026-05-04 22:11 27.98506 -68.55106 40064 ft 462 kts 177°
2026-05-04 22:11 27.92195 -68.53689 40059 ft 462 kts 177°
2026-05-04 22:12 27.85886 -68.52274 40052 ft 462 kts 176°
2026-05-04 22:12 27.79623 -68.50870 40024 ft 461 kts 176°
2026-05-04 22:13 27.73313 -68.49460 40051 ft 463 kts 176°
2026-05-04 22:13 27.66983 -68.48048 40050 ft 464 kts 176°
2026-05-04 22:14 27.60654 -68.46635 40047 ft 464 kts 176°
2026-05-04 22:14 27.54361 -68.45232 40053 ft 464 kts 176°
2026-05-04 22:15 27.48021 -68.43820 40053 ft 465 kts 176°
2026-05-04 22:15 27.41645 -68.42405 40050 ft 468 kts 176°
2026-05-04 22:16 27.35255 -68.40985 40041 ft 469 kts 176°
2026-05-04 22:16 27.28898 -68.39573 40053 ft 469 kts 176°
2026-05-04 22:17 27.22499 -68.38154 40053 ft 469 kts 176°
2026-05-04 22:17 27.16090 -68.36750 40048 ft 471 kts 176°
2026-05-04 22:18 27.09641 -68.35341 40046 ft 473 kts 177°
2026-05-04 22:18 27.03226 -68.33909 40045 ft 473 kts 177°
2026-05-04 22:19 26.96770 -68.32473 40049 ft 473 kts 177°
2026-05-04 22:19 26.90313 -68.31047 40036 ft 473 kts 178°
2026-05-04 22:20 26.83845 -68.29625 40044 ft 474 kts 178°
2026-05-04 22:20 26.77372 -68.28203 40043 ft 474 kts 178°
2026-05-04 22:21 26.70952 -68.26794 40043 ft 474 kts 178°
2026-05-04 22:21 26.64473 -68.25373 40049 ft 474 kts 178°
2026-05-04 22:22 26.57995 -68.23955 40044 ft 475 kts 178°
2026-05-04 22:22 26.51504 -68.22536 40045 ft 475 kts 178°
2026-05-04 22:23 26.45060 -68.21128 40045 ft 475 kts 178°
2026-05-04 22:23 26.38566 -68.19710 40052 ft 475 kts 178°
2026-05-04 22:24 26.32065 -68.18293 40034 ft 476 kts 178°
2026-05-04 22:24 26.25548 -68.16876 40051 ft 478 kts 178°
2026-05-04 22:25 26.19065 -68.15466 40049 ft 478 kts 178°
2026-05-04 22:25 26.12531 -68.14045 40051 ft 478 kts 178°
2026-05-04 22:26 26.05999 -68.12627 40051 ft 478 kts 178°
2026-05-04 22:26 25.99465 -68.11211 40051 ft 478 kts 178°
2026-05-04 22:27 25.92976 -68.09806 40053 ft 478 kts 178°
2026-05-04 22:27 25.86442 -68.08393 40056 ft 478 kts 178°
2026-05-04 22:28 25.79916 -68.06984 40055 ft 478 kts 178°
2026-05-04 22:28 25.73383 -68.05574 40038 ft 478 kts 178°
2026-05-04 22:29 25.66874 -68.04173 40054 ft 481 kts 178°
2026-05-04 22:29 25.60297 -68.02758 40054 ft 481 kts 178°
2026-05-04 22:30 25.53726 -68.01344 40053 ft 481 kts 178°
2026-05-04 22:30 25.47150 -67.99931 40053 ft 481 kts 178°
2026-05-04 22:31 25.40615 -67.98529 40049 ft 482 kts 178°
2026-05-04 22:31 25.34021 -67.97117 40051 ft 484 kts 178°
2026-05-04 22:32 25.27409 -67.95701 40054 ft 484 kts 178°
2026-05-04 22:32 25.20799 -67.94287 40053 ft 484 kts 178°
2026-05-04 22:33 25.14234 -67.92884 40026 ft 484 kts 178°
2026-05-04 22:33 25.07617 -67.91474 40057 ft 486 kts 178°
2026-05-04 22:34 25.00973 -67.90059 40052 ft 486 kts 178°
2026-05-04 22:34 24.94326 -67.88642 40053 ft 486 kts 178°
2026-05-04 22:35 24.87678 -67.87228 40061 ft 486 kts 178°
2026-05-04 22:35 24.81073 -67.85825 40052 ft 487 kts 177°
2026-05-04 22:36 24.74414 -67.84413 40057 ft 488 kts 177°
2026-05-04 22:36 24.67747 -67.83000 40058 ft 488 kts 177°
2026-05-04 22:37 24.61080 -67.81587 40059 ft 488 kts 177°
2026-05-04 22:37 24.54457 -67.80186 40045 ft 488 kts 177°
2026-05-04 22:38 24.47788 -67.78779 40061 ft 489 kts 177°
2026-05-04 22:38 24.41107 -67.77370 40061 ft 489 kts 177°
2026-05-04 22:39 24.34425 -67.75960 40060 ft 489 kts 177°
2026-05-04 22:39 24.27790 -67.74562 40058 ft 489 kts 177°
2026-05-04 22:40 24.21113 -67.73158 40061 ft 489 kts 177°
2026-05-04 22:40 24.14412 -67.71751 40058 ft 491 kts 177°
2026-05-04 22:41 24.07700 -67.70342 40057 ft 491 kts 177°
2026-05-04 22:41 24.01030 -67.68942 40063 ft 491 kts 177°
2026-05-04 22:42 23.94317 -67.67536 40066 ft 491 kts 177°
2026-05-04 22:42 23.87598 -67.66130 40064 ft 492 kts 176°
2026-05-04 22:43 23.80876 -67.64726 40065 ft 492 kts 177°
2026-05-04 22:43 23.74146 -67.63320 40064 ft 492 kts 177°
2026-05-04 22:44 23.67458 -67.61925 40061 ft 492 kts 176°
2026-05-04 22:44 23.60736 -67.60524 40055 ft 492 kts 176°
2026-05-04 22:45 23.53993 -67.59122 40062 ft 493 kts 176°
2026-05-04 22:45 23.43920 -67.57028 40061 ft 493 kts 176°
2026-05-04 22:46 23.37174 -67.55627 40062 ft 493 kts 176°
2026-05-04 22:46 23.30429 -67.54228 40030 ft 494 kts 176°
2026-05-04 22:47 23.23671 -67.52829 40063 ft 495 kts 176°
2026-05-04 22:47 23.16942 -67.51437 40064 ft 496 kts 176°
2026-05-04 22:48 23.10165 -67.50035 40063 ft 496 kts 176°
2026-05-04 22:48 23.03397 -67.48636 40065 ft 496 kts 176°
2026-05-04 22:49 22.96617 -67.47238 40064 ft 496 kts 176°
2026-05-04 22:49 22.89887 -67.45850 40063 ft 496 kts 176°
2026-05-04 22:50 22.83114 -67.44456 40064 ft 496 kts 176°
2026-05-04 22:50 22.76340 -67.43063 40063 ft 495 kts 176°
2026-05-04 22:51 22.69565 -67.41671 40054 ft 495 kts 176°
2026-05-04 22:51 22.62830 -67.40289 40069 ft 496 kts 176°
2026-05-04 22:52 22.56045 -67.38897 40062 ft 496 kts 176°
2026-05-04 22:52 22.49267 -67.37508 40066 ft 496 kts 176°
2026-05-04 22:53 22.42481 -67.36119 40066 ft 496 kts 176°
2026-05-04 22:53 22.35695 -67.34732 40063 ft 496 kts 175°
2026-05-04 22:54 22.28952 -67.33355 40067 ft 496 kts 175°
2026-05-04 22:54 22.22170 -67.31971 40067 ft 496 kts 175°
2026-05-04 22:55 22.15379 -67.30587 40064 ft 496 kts 175°
2026-05-04 22:55 22.08591 -67.29204 40045 ft 496 kts 175°
2026-05-04 22:56 22.01803 -67.27823 40065 ft 496 kts 175°
2026-05-04 22:56 21.95070 -67.26455 40064 ft 496 kts 175°
2026-05-04 22:57 21.88286 -67.25077 40067 ft 496 kts 175°
2026-05-04 22:57 21.81501 -67.23701 40064 ft 496 kts 175°
2026-05-04 22:58 21.74713 -67.22325 40062 ft 496 kts 175°
2026-05-04 22:58 21.67975 -67.20962 40062 ft 497 kts 174°
2026-05-04 22:59 21.61170 -67.19594 40061 ft 498 kts 175°
2026-05-04 22:59 21.54348 -67.18310 40062 ft 497 kts 175°
2026-05-04 23:00 21.47532 -67.17062 40064 ft 497 kts 175°
2026-05-04 23:00 21.40754 -67.15818 40064 ft 498 kts 175°
2026-05-04 23:01 21.33923 -67.14559 40059 ft 498 kts 175°
2026-05-04 23:01 21.27096 -67.13291 40058 ft 498 kts 174°
2026-05-04 23:02 21.20302 -67.11668 40059 ft 501 kts 171°
2026-05-04 23:02 21.13546 -67.09821 40050 ft 501 kts 170°
2026-05-04 23:03 21.06838 -67.07992 40059 ft 501 kts 170°
2026-05-04 23:03 21.00069 -67.06188 40060 ft 501 kts 171°
2026-05-04 23:04 20.93298 -67.04404 40059 ft 501 kts 171°
2026-05-04 23:04 20.86527 -67.02624 40059 ft 501 kts 171°
2026-05-04 23:05 20.79805 -67.00859 40053 ft 501 kts 171°
2026-05-04 23:05 20.73031 -66.99080 40052 ft 501 kts 171°
2026-05-04 23:06 20.66269 -66.97306 40056 ft 501 kts 171°
2026-05-04 23:06 20.59504 -66.95533 40057 ft 500 kts 171°
2026-05-04 23:07 20.52740 -66.93761 40054 ft 500 kts 171°
2026-05-04 23:07 20.46028 -66.92004 40063 ft 500 kts 171°
2026-05-04 23:08 20.39260 -66.90233 40054 ft 500 kts 171°
2026-05-04 23:08 20.32514 -66.88469 39868 ft 495 kts 170°
2026-05-04 23:09 20.29195 -66.87600 39637 ft 489 kts 171°
2026-05-04 23:09 20.25897 -66.86738 39413 ft 488 kts 171°
2026-05-04 23:09 20.22661 -66.85895 39180 ft 489 kts 171°
2026-05-04 23:09 20.19359 -66.85036 38949 ft 488 kts 171°
2026-05-04 23:10 20.16078 -66.84181 38552 ft 484 kts 170°
2026-05-04 23:10 20.12816 -66.83331 38013 ft 483 kts 170°
2026-05-04 23:10 20.09553 -66.82482 37484 ft 481 kts 170°
2026-05-04 23:10 20.06311 -66.81638 36975 ft 479 kts 170°
2026-05-04 23:11 20.03074 -66.80797 36445 ft 478 kts 169°
2026-05-04 23:11 19.99866 -66.79869 35915 ft 480 kts 162°
2026-05-04 23:11 19.96830 -66.78487 35296 ft 482 kts 159°
2026-05-04 23:11 19.93785 -66.76988 34676 ft 483 kts 157°
2026-05-04 23:12 19.90758 -66.75418 33987 ft 484 kts 156°
2026-05-04 23:12 19.87722 -66.73806 32945 ft 491 kts 155°
2026-05-04 23:12 19.84655 -66.72165 31970 ft 496 kts 155°
2026-05-04 23:12 19.81561 -66.70511 30960 ft 500 kts 155°
2026-05-04 23:13 19.78433 -66.68845 29946 ft 505 kts 155°
2026-05-04 23:13 19.75308 -66.67187 29221 ft 500 kts 155°
2026-05-04 23:13 19.72209 -66.65548 28549 ft 494 kts 155°
2026-05-04 23:13 19.69193 -66.63956 27869 ft 488 kts 155°
2026-05-04 23:14 19.66167 -66.62362 27184 ft 482 kts 155°
2026-05-04 23:14 19.63179 -66.60789 26503 ft 477 kts 155°
2026-05-04 23:14 19.60222 -66.59233 25815 ft 472 kts 155°
2026-05-04 23:14 19.57296 -66.57698 25144 ft 467 kts 155°
2026-05-04 23:15 19.54399 -66.56176 24458 ft 462 kts 155°
2026-05-04 23:15 19.51535 -66.54675 23775 ft 457 kts 155°
2026-05-04 23:15 19.48712 -66.53192 23006 ft 447 kts 155°
2026-05-04 23:15 19.45986 -66.51755 22328 ft 427 kts 155°
2026-05-04 23:16 19.43416 -66.50404 21715 ft 410 kts 155°
2026-05-04 23:16 19.40901 -66.49082 21111 ft 399 kts 156°
2026-05-04 23:16 19.38396 -66.47770 20511 ft 404 kts 156°
2026-05-04 23:16 19.35867 -66.46451 19891 ft 405 kts 156°
2026-05-04 23:17 19.33345 -66.45135 19285 ft 404 kts 156°
2026-05-04 23:17 19.30826 -66.43818 18670 ft 403 kts 156°
2026-05-04 23:17 19.28308 -66.42501 18010 ft 402 kts 156°
2026-05-04 23:17 19.25808 -66.41193 17361 ft 401 kts 156°
2026-05-04 23:18 19.23344 -66.39904 16791 ft 398 kts 156°
2026-05-04 23:18 19.20866 -66.38608 16111 ft 398 kts 156°
2026-05-04 23:18 19.18388 -66.37313 15477 ft 396 kts 155°
2026-05-04 23:18 19.15922 -66.36025 14856 ft 394 kts 155°
2026-05-04 23:19 19.13480 -66.34749 14241 ft 390 kts 156°
2026-05-04 23:19 19.10957 -66.33747 13567 ft 385 kts 165°
2026-05-04 23:19 19.08372 -66.33094 12857 ft 381 kts 169°
2026-05-04 23:19 19.05800 -66.32533 12239 ft 374 kts 169°
2026-05-04 23:20 19.03263 -66.32006 11642 ft 368 kts 169°
2026-05-04 23:20 19.00766 -66.31495 11086 ft 362 kts 169°
2026-05-04 23:20 18.98387 -66.31011 10960 ft 343 kts 169°
2026-05-04 23:20 18.96103 -66.30548 10878 ft 325 kts 169°
2026-05-04 23:21 18.93940 -66.30111 10752 ft 310 kts 169°
2026-05-04 23:21 18.91867 -66.29693 10610 ft 297 kts 169°
2026-05-04 23:21 18.89873 -66.29291 10486 ft 287 kts 169°
2026-05-04 23:21 18.87925 -66.28898 10160 ft 286 kts 169°
2026-05-04 23:22 18.85962 -66.28503 9739 ft 288 kts 169°
2026-05-04 23:22 18.84001 -66.28108 9339 ft 285 kts 169°
2026-05-04 23:22 18.82062 -66.27718 8963 ft 282 kts 169°
2026-05-04 23:22 18.80172 -66.27337 8603 ft 279 kts 169°
2026-05-04 23:23 18.78276 -66.26956 8229 ft 276 kts 169°
2026-05-04 23:23 18.76397 -66.26578 7871 ft 275 kts 169°
2026-05-04 23:23 18.74528 -66.26202 7513 ft 273 kts 169°
2026-05-04 23:23 18.72665 -66.25827 7143 ft 272 kts 169°
2026-05-04 23:24 18.70809 -66.25454 6788 ft 271 kts 168°
2026-05-04 23:24 18.68963 -66.25083 6417 ft 269 kts 168°
2026-05-04 23:24 18.67128 -66.24715 6037 ft 266 kts 168°
2026-05-04 23:24 18.65323 -66.24352 5681 ft 263 kts 168°
2026-05-04 23:25 18.63559 -66.23997 5328 ft 261 kts 168°
2026-05-04 23:25 18.61778 -66.23639 4970 ft 259 kts 168°
2026-05-04 23:25 18.60009 -66.23284 4609 ft 258 kts 168°
2026-05-04 23:25 18.58250 -66.22929 4243 ft 257 kts 168°
2026-05-04 23:26 18.56503 -66.22580 3891 ft 255 kts 168°
2026-05-04 23:26 18.54762 -66.22232 3540 ft 254 kts 167°
2026-05-04 23:26 18.53032 -66.21882 3173 ft 254 kts 167°
2026-05-04 23:26 18.51303 -66.21534 2817 ft 252 kts 167°
2026-05-04 23:27 18.49606 -66.21194 2453 ft 251 kts 168°
2026-05-04 23:27 18.47917 -66.20856 2268 ft 242 kts 167°
2026-05-04 23:27 18.46309 -66.20505 2133 ft 229 kts 163°
2026-05-04 23:27 18.44922 -66.19826 2015 ft 213 kts 142°
2026-05-04 23:28 18.44097 -66.18617 1986 ft 197 kts 116°
2026-05-04 23:28 18.43688 -66.17276 1985 ft 190 kts 107°
2026-05-04 23:28 18.43456 -66.15914 1987 ft 190 kts 97°
2026-05-04 23:28 18.43421 -66.14525 1989 ft 188 kts 92°
2026-05-04 23:29 18.43401 -66.13216 1977 ft 172 kts 94°
2026-05-04 23:29 18.43398 -66.11994 1933 ft 165 kts 94°
2026-05-04 23:29 18.43382 -66.10803 1740 ft 160 kts 94°
2026-05-04 23:29 18.43373 -66.09640 1519 ft 155 kts 92°
2026-05-04 23:30 18.43372 -66.08548 1308 ft 145 kts 94°
2026-05-04 23:30 18.43370 -66.07529 1129 ft 132 kts 94°
2026-05-04 23:30 18.43366 -66.06593 981 ft 125 kts 91°
2026-05-04 23:30 18.43365 -66.05681 820 ft 124 kts 94°
2026-05-04 23:31 18.43360 -66.04766 670 ft 126 kts 91°
2026-05-04 23:31 18.43371 -66.03848 485 ft 124 kts 91°
2026-05-04 23:31 18.43365 -66.02952 328 ft 123 kts 92°
2026-05-04 23:31 18.43358 -66.02058 176 ft 124 kts 92°
2026-05-04 23:32 18.43356 -66.01158 32 ft 122 kts 91°
2026-05-04 23:32 18.43353 -66.00387 21 ft 79 kts 90°
2026-05-04 23:32 18.43355 -66.00057 23 ft 21 kts 81°
2026-05-04 23:32 18.43409 -65.99916 22 ft 18 kts 60°
2026-05-04 23:33 18.43468 -65.99828 22 ft 13 kts 31°
2026-05-04 23:33 18.43553 -65.99844 23 ft 14 kts 303°
2026-05-04 23:33 18.43562 -65.99940 21 ft 12 kts 271°
2026-05-04 23:33 18.43573 -65.99980 21 ft 4 kts 327°
2026-05-04 23:34 18.43612 -65.99977 22 ft 8 kts
2026-05-04 23:34 18.43684 -65.99979 24 ft 15 kts 342°
2026-05-04 23:34 18.43794 -66.00026 22 ft 19 kts 337°
2026-05-04 23:34 18.43922 -66.00084 24 ft 22 kts 337°
2026-05-04 23:35 18.43997 -66.00147 22 ft 11 kts 267°
2026-05-04 23:35 18.43980 -66.00176 23 ft 2 kts 193°
2026-05-04 23:35 18.43938 -66.00178 24 ft 8 kts 186°
2026-05-04 23:35 18.43920 -66.00184 23 ft 2 kts 197°
2026-05-04 23:36 18.43910 -66.00188 22 ft 1 kts 198°
2026-05-04 23:36 18.43906 -66.00189 23 ft 0 kts 199°